DW2465 Weather Reports


Display with metric or nautical units.
time (UTC)temp
F
wind
direction
speed
MPH
gust
MPH
rain 1hr
in
rain 24hr
in
rain mn
in
humidity
%
barometer
mb
20220817013047 75 177 0.0 0.0 0.00 0.00 0.00 69 1018.1
20220817011555 75 176 0.0 0.0 0.00 0.00 0.00 66 1018.0
20220817010044 76 171 0.0 0.0 0.00 0.00 0.00 64 1018.3
20220817004542 76 171 0.0 2.0 0.00 0.00 0.00 62 1018.1
20220817003013 77 164 0.0 0.0 0.00 0.00 0.00 62 1018.2
20220817001529 77 176 0.0 0.0 0.00 0.00 0.00 61 1018.1
20220817000028 77 117 0.0 4.0 0.00 0.00 0.00 62 1017.8
20220816234512 78 91 0.0 0.0 0.00 0.00 0.00 61 1017.9
20220816233015 79 129 0.0 0.0 0.00 0.00 0.00 59 1018.1
20220816231505 78 121 0.0 0.0 0.00 0.00 0.00 60 1017.9
20220816230005 79 200 0.0 0.0 0.00 0.00 0.00 58 1017.9
20220816224501 79 202 0.0 0.0 0.00 0.00 0.00 60 1017.8
20220816223001 78 205 0.0 0.0 0.00 0.00 0.00 60 1017.8
20220816221608 79 210 0.0 0.0 0.00 0.00 0.00 59 1017.9
20220816220136 79 241 0.0 1.0 0.00 0.00 0.00 59 1017.9
20220816214608 78 163 0.0 0.0 0.00 0.00 0.00 60 1018.0
20220816213135 78 130 0.0 6.0 0.00 0.00 0.00 60 1018.1
20220816211604 78 124 0.0 0.0 0.00 0.00 0.00 61 1018.0
20220816210038 77 148 0.0 0.0 0.00 0.00 0.00 62 1018.2
20220816204522 77 110 0.0 0.0 0.00 0.00 0.00 62 1018.3
20220816203019 78 130 0.0 0.0 0.00 0.00 0.00 60 1018.3
20220816201519 80 138 0.0 0.0 0.00 0.00 0.00 57 1018.3
20220816200034 79 286 0.0 0.0 0.00 0.00 0.00 58 1018.4
20220816194526 79 173 0.0 0.0 0.00 0.00 0.00 58 1018.5
20220816193019 78 194 0.0 0.0 0.00 0.00 0.00 62 1018.6
20220816191521 77 233 0.0 0.0 0.00 0.00 0.00 62 1018.7
20220816190009 77 169 0.0 0.0 0.00 0.00 0.00 63 1018.9
20220816184506 78 148 0.0 0.0 0.00 0.00 0.00 63 1019.0
20220816183006 77 215 0.0 0.0 0.00 0.00 0.00 64 1019.1
20220816181610 76 213 0.0 0.0 0.00 0.00 0.00 64 1019.3
20220816180058 76 121 0.0 0.0 0.00 0.00 0.00 65 1019.3
20220816174635 75 264 0.0 6.0 0.00 0.00 0.00 69 1019.4
20220816173039 75 194 0.0 5.0 0.00 0.00 0.00 67 1019.5
20220816171525 75 134 0.0 0.0 0.00 0.00 0.00 66 1019.5
20220816170037 74 186 0.0 0.0 0.00 0.00 0.00 70 1019.5
20220816164524 74 213 0.0 3.0 0.00 0.00 0.00 71 1019.6
20220816163017 74 171 0.0 3.0 0.00 0.00 0.00 72 1019.7
20220816161530 73 186 0.0 1.0 0.00 0.00 0.00 74 1019.7
20220816160036 73 155 0.0 0.0 0.00 0.00 0.00 74 1019.7
20220816154529 72 153 0.0 0.0 0.00 0.00 0.00 77 1019.8
20220816153031 71 202 0.0 0.0 0.00 0.00 0.00 78 1019.9
20220816151516 72 203 0.0 0.0 0.00 0.00 0.00 77 1019.9
20220816150008 73 194 0.0 1.0 0.00 0.00 0.00 76 1019.8
20220816144504 71 141 0.0 0.0 0.00 0.00 0.00 79 1019.8
20220816143008 71 104 0.0 1.0 0.00 0.00 0.00 80 1019.7
20220816141558 70 130 0.0 0.0 0.00 0.00 0.00 83 1019.7
20220816140100 68 194 0.0 0.0 0.00 0.00 0.00 87 1019.8
20220816134551 67 196 0.0 0.0 0.00 0.00 0.00 88 1019.9
20220816133107 67 178 0.0 0.0 0.00 0.00 0.00 91 1019.7
20220816131605 66 180 0.0 0.0 0.00 0.00 0.00 93 1019.7
20220816130056 65 180 0.0 0.0 0.00 0.00 0.00 94 1019.6
20220816124634 65 180 0.0 0.0 0.00 0.00 0.00 95 1019.3
20220816123047 64 180 0.0 0.0 0.00 0.00 0.00 95 1019.3
20220816121538 64 180 0.0 0.0 0.00 0.00 0.00 95 1019.0
20220816120035 64 180 0.0 0.0 0.00 0.00 0.00 95 1018.9
20220816114538 64 180 0.0 0.0 0.00 0.00 0.00 95 1018.9
20220816113034 64 180 0.0 0.0 0.00 0.00 0.00 95 1018.7
20220816111555 64 180 0.0 0.0 0.00 0.00 0.00 94 1018.8
20220816110031 64 180 0.0 0.0 0.00 0.00 0.00 94 1018.8
20220816104505 64 180 0.0 0.0 0.00 0.00 0.00 94 1018.8
20220816103101 64 180 0.0 0.0 0.00 0.00 0.00 94 1018.9
20220816101544 64 180 0.0 0.0 0.00 0.00 0.00 95 1018.9
20220816100102 64 180 0.0 0.0 0.00 0.00 0.00 94 1018.9
20220816094537 64 180 0.0 0.0 0.00 0.00 0.00 94 1019.1
20220816093025 64 180 0.0 0.0 0.00 0.00 0.00 94 1019.0
20220816091524 64 180 0.0 0.0 0.00 0.00 0.00 94 1018.8
20220816090022 64 180 0.0 0.0 0.00 0.00 0.00 94 1018.6
20220816084559 64 180 0.0 0.0 0.00 0.00 0.00 94 1018.5
20220816083123 64 180 0.0 0.0 0.00 0.00 0.00 94 1018.4
20220816081553 64 180 0.0 0.0 0.00 0.00 0.00 94 1018.4
20220816080047 64 180 0.0 0.0 0.00 0.00 0.00 94 1018.5
20220816074547 64 180 0.0 0.0 0.00 0.00 0.00 94 1018.5
20220816073101 64 180 0.0 0.0 0.00 0.00 0.00 93 1018.3
20220816071636 64 180 0.0 0.0 0.00 0.00 0.00 93 1018.3
20220816070042 63 180 0.0 0.0 0.00 0.00 0.00 93 1018.5
20220816064605 63 180 0.0 0.0 0.00 0.00 0.00 93 1018.4
20220816063041 64 180 0.0 0.0 0.00 0.00 0.00 92 1018.6
20220816061510 64 180 0.0 0.0 0.00 0.00 0.00 92 1018.5
20220816060016 64 179 0.0 0.0 0.00 0.00 0.00 91 1018.4
20220816054506 65 178 0.0 0.0 0.00 0.00 0.00 89 1018.3
20220816053110 65 178 0.0 0.0 0.00 0.00 0.00 88 1018.3
20220816051600 66 178 0.0 0.0 0.00 0.00 0.00 87 1018.2
20220816050054 66 178 0.0 0.0 0.00 0.00 0.00 87 1018.1
20220816044552 66 179 0.0 0.0 0.00 0.00 0.00 87 1017.9
20220816043059 66 179 0.0 0.0 0.00 0.00 0.00 86 1018.1
20220816041558 67 190 0.0 0.0 0.00 0.00 0.00 85 1017.9
20220816040051 67 190 0.0 0.0 0.00 0.00 0.00 84 1017.8
20220816034547 67 190 0.0 0.0 0.00 0.00 0.00 84 1017.7
20220816033046 67 190 0.0 0.0 0.00 0.00 0.00 84 1017.7
20220816031545 68 196 0.0 0.0 0.00 0.00 0.00 84 1017.7
20220816030044 68 198 0.0 0.0 0.00 0.00 0.00 84 1017.7
20220816024545 68 175 0.0 0.0 0.00 0.00 0.00 84 1017.5
20220816023041 68 172 0.0 0.0 0.00 0.00 0.00 84 1017.5
20220816021603 68 171 0.0 0.0 0.00 0.00 0.00 82 1017.6
20220816020040 69 171 0.0 0.0 0.00 0.00 0.00 80 1017.3
20220816014537 69 171 0.0 0.0 0.00 0.00 0.00 79 1017.3